Location: Antioch Church
(34.9543°N, 88.5145°W)
Time: 22:53:13
(UTC+00:00)

USA 267 - Pass Details

Date: 11 December 2019
Orbit: 1100 x 1107 km, 123.0° (Epoch: 17 January)

Event Time Altitude Azimuth Distance (km) Brightness Sun altitude
Rises 00:54:10 0° 157° (SSE) 3,900 6.0 -26.2°
Reaches altitude 10° 00:56:48 10° 164° (SSE) 2,945 5.4 -26.7°
Maximum altitude 01:02:51 41° 233° (SW) 1,542 4.4 -28.0°
Drops below altitude 10° 01:08:57 10° 302° (WNW) 2,957 6.1 -29.2°
Sets 01:11:36 0° 309° (NW) 3,918 6.7 -29.7°
